M I D A S
Marine Information and Data Acquisition System
Tripno 920 of the Zeeleeuw from 2005-06-23 06:25:49 to 2005-06-23 12:58:07
Back to CruiseResearch ActivitiesStationsMapUnderway DataData graphs

EquipmentUnitsComments
TimeDGPSUTC
LatitudeDGPSDM.mWGS84
LongitudeDGPSDM.mWGS84
SpeedMeteo Stationm/sRelative wind speed
DirectionMeteo StationdegRelative wind direction
TemperatureMeteo Stationdeg CelciusAir temperature
PressureMeteo StationPaAtmospheric pressure
HumidityMeteo Station%Relative humidity
Missing or incorrect values are displayed as -999
Metereological data collected by the RV Zeeleeuw from 2005-06-23 06:26:53 to 2005-06-23 13:07:03
Time Latitude Longitude Speed Direction Temperature Pressure Humidity
2005-06-23 06:27 51°13.669 2°55.926 0.1 88 22 101950 58
2005-06-23 06:28 51°13.687 2°55.801 1.2 130 22.1 101950 58
2005-06-23 06:29 51°13.69 2°55.747 2.3 60 22 101950 58
2005-06-23 06:30 51°13.715 2°55.757 2.7 147 21.9 101950 59
2005-06-23 06:31 51°13.733 2°55.733 0.5 131 21.8 101950 59
2005-06-23 06:32 51°13.821 2°55.639 2 28 21.8 101950 59
2005-06-23 06:33 51°13.95 2°55.545 1.8 31 21.8 101950 59
2005-06-23 06:34 51°14.087 2°55.455 2.2 21 21.8 101950 58
2005-06-23 06:35 51°14.222 2°55.323 1.9 3 21.9 101950 59
2005-06-23 06:36 51°14.338 2°55.117 2.4 350 21.9 101950 59
2005-06-23 06:37 51°14.476 2°54.887 3.2 352 22 101960 58
2005-06-23 06:38 51°14.645 2°54.656 2.9 2 22 101960 58
2005-06-23 06:39 51°14.821 2°54.442 3.1 354 22 101960 59
2005-06-23 06:40 51°14.994 2°54.239 2.7 9 22 101970 59
2005-06-23 06:41 51°15.161 2°54.036 3.7 354 22 101960 60
2005-06-23 06:42 51°15.344 2°53.844 3.5 10 21.8 101960 60
2005-06-23 06:43 51°15.528 2°53.655 4.2 12 21.8 101960 62
2005-06-23 06:44 51°15.721 2°53.454 4.4 9 21.5 101960 64
2005-06-23 06:45 51°15.913 2°53.248 4.3 5 21.4 101960 65
2005-06-23 06:46 51°16.103 2°53.046 4.5 5 21.3 101960 65
2005-06-23 06:47 51°16.294 2°52.853 4.6 11 21.2 101960 65
2005-06-23 06:48 51°16.488 2°52.671 4.3 14 21.1 101960 65
2005-06-23 06:49 51°16.687 2°52.508 4.5 22 21 101960 66
2005-06-23 06:50 51°16.882 2°52.363 4 23 20.8 101960 67
2005-06-23 06:51 51°17.08 2°52.226 4.3 22 20.7 101960 68
2005-06-23 06:52 51°17.284 2°52.105 4.2 20 20.6 101960 68
2005-06-23 06:53 51°17.482 2°51.968 4.1 9 20.5 101960 69
2005-06-23 06:54 51°17.629 2°51.708 4.5 348 20.4 101960 70
2005-06-23 06:55 51°17.731 2°51.39 4.6 349 20.4 101970 70
2005-06-23 06:56 51°17.842 2°51.063 5.4 348 20.4 101970 71
2005-06-23 06:57 51°17.954 2°50.729 5.2 347 20.4 101970 71
2005-06-23 06:58 51°18.06 2°50.387 5.5 346 20.3 101970 71
2005-06-23 06:59 51°18.165 2°50.045 5.3 347 20.3 101970 71
2005-06-23 07:00 51°18.268 2°49.701 5.1 347 20.3 101970 71
2005-06-23 07:01 51°18.371 2°49.359 5.3 347 20.3 101970 71
2005-06-23 07:02 51°18.477 2°49.023 5.4 347 20.3 101970 71
2005-06-23 07:03 51°18.586 2°48.683 5.3 349 20.2 101970 71
2005-06-23 07:04 51°18.685 2°48.326 6 349 20.2 101970 71
2005-06-23 07:05 51°18.782 2°47.97 5.9 347 20.2 101960 71
2005-06-23 07:06 51°18.877 2°47.616 5.9 347 20.2 101960 71
2005-06-23 07:07 51°18.971 2°47.266 5.8 346 20.1 101960 71
2005-06-23 07:08 51°19.066 2°46.914 5.6 346 20.1 101960 71
2005-06-23 07:09 51°19.162 2°46.555 5.7 346 20 101960 71
2005-06-23 07:10 51°19.257 2°46.199 5.7 346 20 101960 71
2005-06-23 07:11 51°19.353 2°45.842 5.7 345 20 101960 71
2005-06-23 07:12 51°19.451 2°45.487 5.6 346 20 101960 72
2005-06-23 07:13 51°19.547 2°45.127 6.2 346 20 101960 72
2005-06-23 07:14 51°19.633 2°44.76 6.1 347 20 101960 72
2005-06-23 07:15 51°19.714 2°44.403 6.6 346 20 101960 72
2005-06-23 07:16 51°19.803 2°44.031 6.1 347 19.9 101960 72
2005-06-23 07:17 51°19.89 2°43.672 6.5 346 19.8 101960 72
2005-06-23 07:18 51°19.98 2°43.313 6.5 346 19.8 101960 73
2005-06-23 07:19 51°20.07 2°42.954 6.6 346 19.7 101960 73
2005-06-23 07:20 51°20.154 2°42.591 6.8 345 19.7 101960 74
2005-06-23 07:21 51°20.225 2°42.217 7.2 346 19.7 101960 73
2005-06-23 07:22 51°20.298 2°41.841 6.4 346 19.7 101950 74
2005-06-23 07:23 51°20.373 2°41.466 6.5 346 19.6 101950 74
2005-06-23 07:24 51°20.42 2°41.087 6.6 346 19.6 101950 74
2005-06-23 07:25 51°20.456 2°40.703 6.7 346 19.6 101950 75
2005-06-23 07:26 51°20.492 2°40.32 6.4 346 19.6 101960 75
2005-06-23 07:27 51°20.528 2°39.932 6.3 346 19.6 101950 75
2005-06-23 07:28 51°20.565 2°39.541 6.1 346 19.6 101950 75
2005-06-23 07:29 51°20.602 2°39.155 6.3 345 19.6 101950 75
2005-06-23 07:30 51°20.637 2°38.762 6.3 343 19.7 101950 74
2005-06-23 07:31 51°20.667 2°38.371 6.3 346 19.7 101950 74
2005-06-23 07:32 51°20.697 2°37.978 6.3 345 19.6 101950 74
2005-06-23 07:33 51°20.729 2°37.58 6.4 348 19.5 101950 74
2005-06-23 07:34 51°20.76 2°37.185 6.4 346 19.5 101950 74
2005-06-23 07:35 51°20.79 2°36.779 6.5 345 19.5 101950 74
2005-06-23 07:36 51°20.818 2°36.384 6.6 344 19.5 101950 74
2005-06-23 07:37 51°20.862 2°35.991 6.2 346 19.5 101950 74
2005-06-23 07:38 51°20.906 2°35.599 6.5 345 19.5 101950 74
2005-06-23 07:39 51°20.948 2°35.208 6.3 345 19.5 101950 74
2005-06-23 07:40 51°20.991 2°34.817 6.2 345 19.5 101950 74
2005-06-23 07:41 51°21.032 2°34.422 6.7 343 19.5 101950 73
2005-06-23 07:42 51°21.109 2°34.055 5.2 346 19.5 101950 73
2005-06-23 07:43 51°21.275 2°33.8 4.9 351 19.5 101950 73
2005-06-23 07:44 51°21.442 2°33.533 4.8 352 19.5 101950 73
2005-06-23 07:45 51°21.606 2°33.276 4.9 353 19.5 101950 73
2005-06-23 07:46 51°21.772 2°33.02 4.9 354 19.4 101950 73
2005-06-23 07:47 51°21.94 2°32.765 4.8 353 19.4 101950 73
2005-06-23 07:48 51°22.109 2°32.508 4.9 354 19.4 101950 73
2005-06-23 07:49 51°22.278 2°32.247 5.1 352 19.4 101950 73
2005-06-23 07:50 51°22.391 2°31.911 6 347 19.3 101950 73
2005-06-23 07:51 51°22.465 2°31.521 6.3 342 19.3 101950 73
2005-06-23 07:52 51°22.514 2°31.135 6.5 341 19.3 101940 73
2005-06-23 07:53 51°22.541 2°30.735 6.6 341 19.2 101940 73
2005-06-23 07:54 51°22.542 2°30.33 6.7 340 19.2 101940 73
2005-06-23 07:55 51°22.539 2°29.922 7 339 19.2 101940 73
2005-06-23 07:56 51°22.538 2°29.52 7.1 339 19.1 101940 73
2005-06-23 07:57 51°22.539 2°29.115 6.8 339 19.1 101940 74
2005-06-23 07:58 51°22.539 2°28.711 6.9 340 19 101940 74
2005-06-23 07:59 51°22.539 2°28.299 6.9 339 19 101940 75
2005-06-23 08:00 51°22.539 2°27.888 6.9 340 19 101940 74
2005-06-23 08:01 51°22.54 2°27.478 7.3 339 19 101940 74
2005-06-23 08:02 51°22.54 2°27.067 7.4 339 18.9 101940 74
2005-06-23 08:03 51°22.538 2°26.661 7.4 340 18.9 101940 74
2005-06-23 08:04 51°22.546 2°26.25 6.6 339 18.8 101930 74
2005-06-23 08:05 51°22.606 2°25.866 5.7 342 18.8 101940 74
2005-06-23 08:06 51°22.744 2°25.573 4.3 354 18.8 101940 75
2005-06-23 08:07 51°22.94 2°25.442 4.7 12 18.7 101940 76
2005-06-23 08:08 51°23.144 2°25.391 4.4 15 18.6 101940 76
2005-06-23 08:09 51°23.352 2°25.359 4.6 20 18.6 101940 77
2005-06-23 08:10 51°23.556 2°25.365 4.7 19 18.5 101930 78
2005-06-23 08:11 51°23.76 2°25.365 4.7 22 18.5 101940 78
2005-06-23 08:12 51°23.96 2°25.363 4.6 20 18.4 101930 79
2005-06-23 08:13 51°24.162 2°25.357 4.6 21 18.4 101930 79
2005-06-23 08:14 51°24.361 2°25.356 4.6 23 18.4 101930 79
2005-06-23 08:15 51°24.557 2°25.373 4.4 23 18.4 101930 79
2005-06-23 08:16 51°24.751 2°25.388 4.2 22 18.4 101930 79
2005-06-23 08:17 51°24.942 2°25.402 4.2 23 18.4 101930 79
2005-06-23 08:18 51°25.138 2°25.416 4.1 21 18.4 101930 79
2005-06-23 08:19 51°25.33 2°25.426 4.1 21 18.4 101930 79
2005-06-23 08:20 51°25.525 2°25.44 4 20 18.3 101930 79
2005-06-23 08:21 51°25.721 2°25.45 3.9 16 18.3 101930 79
2005-06-23 08:22 51°25.917 2°25.46 4.2 20 18.3 101930 79
2005-06-23 08:23 51°26.111 2°25.474 4.2 17 18.3 101930 79
2005-06-23 08:24 51°26.307 2°25.489 4 17 18.2 101930 80
2005-06-23 08:25 51°26.503 2°25.506 4 17 18.2 101930 80
2005-06-23 08:26 51°26.699 2°25.522 4.1 15 18.3 101920 80
2005-06-23 08:27 51°26.896 2°25.539 4.2 15 18.3 101930 80
2005-06-23 08:28 51°27.092 2°25.556 4.4 12 18.2 101920 80
2005-06-23 08:29 51°27.287 2°25.581 4.5 12 18.2 101920 80
2005-06-23 08:30 51°27.483 2°25.589 4.7 8 18.1 101920 81
2005-06-23 08:31 51°27.68 2°25.579 4.8 5 18 101920 81
2005-06-23 08:32 51°27.878 2°25.571 4.4 6 18 101920 82
2005-06-23 08:33 51°28.073 2°25.558 4.5 4 18.1 101920 82
2005-06-23 08:34 51°28.27 2°25.539 4.6 4 18.1 101920 82
2005-06-23 08:35 51°28.467 2°25.522 4.8 7 18.1 101920 82
2005-06-23 08:36 51°28.666 2°25.506 4.6 6 18.1 101920 82
2005-06-23 08:37 51°28.862 2°25.491 4.5 6 18.1 101920 82
2005-06-23 08:38 51°29.058 2°25.478 4.7 7 18.1 101920 82
2005-06-23 08:39 51°29.255 2°25.467 4.5 9 18.1 101920 82
2005-06-23 08:40 51°29.452 2°25.46 4.3 11 18.1 101920 82
2005-06-23 08:41 51°29.65 2°25.455 4.6 10 18.2 101920 82
2005-06-23 08:42 51°29.85 2°25.45 4.5 10 18.1 101910 82
2005-06-23 08:43 51°30.048 2°25.442 4.5 11 18.1 101920 82
2005-06-23 08:44 51°30.246 2°25.427 4.3 5 18.2 101920 82
2005-06-23 08:45 51°30.438 2°25.441 3.9 14 18.2 101920 82
2005-06-23 08:46 51°30.623 2°25.502 3.9 13 18.2 101920 81
2005-06-23 08:47 51°30.81 2°25.562 4.1 14 18.2 101920 81
2005-06-23 08:48 51°30.998 2°25.622 4.2 14 18.2 101920 81
2005-06-23 08:49 51°31.173 2°25.731 4.5 21 18.2 101920 81
2005-06-23 08:50 51°31.344 2°25.872 4.8 26 18.1 101920 81
2005-06-23 08:51 51°31.511 2°26.019 4.7 22 18.1 101920 81
2005-06-23 08:52 51°31.679 2°26.169 5 21 18.1 101920 81
2005-06-23 08:53 51°31.848 2°26.315 4.9 21 18 101920 81
2005-06-23 08:54 51°32.016 2°26.461 5 21 18 101920 81
2005-06-23 08:55 51°32.184 2°26.606 4.8 21 18 101910 81
2005-06-23 08:56 51°32.352 2°26.751 4.9 16 18 101910 81
2005-06-23 08:57 51°32.523 2°26.899 5 17 18 101910 81
2005-06-23 08:58 51°32.692 2°27.043 5 17 18 101910 81
2005-06-23 08:59 51°32.863 2°27.188 4.8 18 18 101910 80
2005-06-23 09:00 51°33.033 2°27.333 5.2 19 18.1 101900 80
2005-06-23 09:01 51°33.203 2°27.478 5.3 20 18.1 101900 80
2005-06-23 09:02 51°33.373 2°27.623 5.8 19 18.1 101900 80
2005-06-23 09:03 51°33.545 2°27.769 6 19 18 101900 80
2005-06-23 09:04 51°33.715 2°27.915 6.3 20 18 101900 81
2005-06-23 09:05 51°33.887 2°28.062 6.1 19 17.9 101900 81
2005-06-23 09:06 51°34.058 2°28.209 6.2 19 17.9 101900 82
2005-06-23 09:07 51°34.229 2°28.356 6.6 20 17.8 101900 82
2005-06-23 09:08 51°34.4 2°28.507 6.8 23 17.8 101900 82
2005-06-23 09:09 51°34.566 2°28.659 6.8 24 17.8 101900 83
2005-06-23 09:10 51°34.735 2°28.809 6.6 26 17.7 101900 82
2005-06-23 09:11 51°34.902 2°28.959 6.6 27 17.7 101910 82
2005-06-23 09:12 51°35.07 2°29.109 6.3 25 17.7 101900 82
2005-06-23 09:13 51°35.238 2°29.259 6.1 26 17.8 101900 82
2005-06-23 09:14 51°35.402 2°29.404 6.5 28 17.8 101900 82
2005-06-23 09:15 51°35.567 2°29.553 6.8 28 17.8 101910 82
2005-06-23 09:16 51°35.73 2°29.702 6.4 28 17.7 101910 82
2005-06-23 09:17 51°35.896 2°29.85 6.3 28 17.7 101910 83
2005-06-23 09:18 51°36.061 2°30 6.2 27 17.7 101910 83
2005-06-23 09:19 51°36.224 2°30.15 6.4 28 17.7 101910 83
2005-06-23 09:20 51°36.387 2°30.302 6.4 27 17.6 101910 83
2005-06-23 09:21 51°36.553 2°30.453 6.5 29 17.5 101900 83
2005-06-23 09:22 51°36.716 2°30.602 6.6 27 17.4 101910 84
2005-06-23 09:23 51°36.878 2°30.751 6.6 29 17.4 101900 84
2005-06-23 09:24 51°37.043 2°30.901 6.4 27 17.3 101900 85
2005-06-23 09:25 51°37.206 2°31.05 6.5 25 17.3 101900 85
2005-06-23 09:26 51°37.371 2°31.203 6.2 26 17.3 101910 85
2005-06-23 09:27 51°37.534 2°31.352 6.4 29 17.2 101900 85
2005-06-23 09:28 51°37.698 2°31.5 6.2 22 17.2 101900 85
2005-06-23 09:29 51°37.87 2°31.621 6 31 17.2 101910 85
2005-06-23 09:30 51°38.045 2°31.741 6.1 28 17.3 101900 85
2005-06-23 09:31 51°38.219 2°31.865 5.9 29 17.3 101900 85
2005-06-23 09:32 51°38.394 2°31.987 5.9 28 17.3 101900 84
2005-06-23 09:33 51°38.571 2°32.112 5.9 28 17.3 101900 84
2005-06-23 09:34 51°38.744 2°32.236 5.8 33 17.3 101900 85
2005-06-23 09:35 51°38.92 2°32.36 5.3 36 17.4 101890 84
2005-06-23 09:36 51°39.083 2°32.513 6.2 30 17.5 101900 84
2005-06-23 09:37 51°39.194 2°32.774 6 33 17.6 101890 84
2005-06-23 09:38 51°39.327 2°32.997 6.4 29 17.6 101890 83
2005-06-23 09:39 51°39.463 2°33.22 5.9 31 17.7 101890 82
2005-06-23 09:40 51°39.599 2°33.447 6.2 24 17.8 101890 81
2005-06-23 09:41 51°39.733 2°33.672 5.9 24 18 101890 79
2005-06-23 09:42 51°39.871 2°33.902 6.8 19 18.1 101890 78
2005-06-23 09:43 51°40.007 2°34.131 6.7 20 18.1 101890 78
2005-06-23 09:44 51°40.144 2°34.36 7.4 20 18.1 101890 78
2005-06-23 09:45 51°40.279 2°34.59 7.4 23 18 101890 79
2005-06-23 09:46 51°40.415 2°34.819 7.6 24 17.9 101890 79
2005-06-23 09:47 51°40.55 2°35.048 7.2 27 17.9 101900 81
2005-06-23 09:48 51°40.683 2°35.278 7 28 17.9 101890 81
2005-06-23 09:49 51°40.802 2°35.528 7.4 26 17.9 101890 81
2005-06-23 09:50 51°40.841 2°35.843 8.1 26 17.9 101900 81
2005-06-23 09:51 51°40.874 2°36.158 8 27 17.9 101900 81
2005-06-23 09:52 51°40.877 2°36.483 8.6 24 17.8 101890 82
2005-06-23 09:53 51°40.86 2°36.811 8.7 24 17.8 101900 82
2005-06-23 09:54 51°40.823 2°37.147 9.3 23 17.8 101900 82
2005-06-23 09:55 51°40.75 2°37.472 9.6 17 17.8 101890 83
2005-06-23 09:56 51°40.637 2°37.78 9.2 17 17.9 101890 83
2005-06-23 09:57 51°40.527 2°38.091 9.2 16 17.9 101890 82
2005-06-23 09:58 51°40.419 2°38.403 9.5 13 18 101890 82
2005-06-23 09:59 51°40.311 2°38.713 9.7 14 18 101890 82
2005-06-23 10:00 51°40.204 2°39.026 9.6 13 17.9 101890 82
2005-06-23 10:01 51°40.1 2°39.338 9.8 16 17.9 101890 82
2005-06-23 10:02 51°39.997 2°39.65 9.4 12 17.8 101890 83
2005-06-23 10:03 51°39.895 2°39.959 9.2 10 17.8 101890 83
2005-06-23 10:04 51°39.789 2°40.268 9.6 11 17.7 101890 83
2005-06-23 10:05 51°39.667 2°40.566 9.2 9 17.7 101890 84
2005-06-23 10:06 51°39.546 2°40.866 10.1 12 17.6 101890 84
2005-06-23 10:07 51°39.425 2°41.166 10.4 14 17.6 101880 85
2005-06-23 10:08 51°39.304 2°41.456 10.5 14 17.7 101890 85
2005-06-23 10:09 51°39.185 2°41.752 10.6 15 17.7 101880 85
2005-06-23 10:10 51°39.064 2°42.051 10.8 15 17.8 101880 85
2005-06-23 10:11 51°38.869 2°42.215 10.4 352 18 101880 84
2005-06-23 10:12 51°38.622 2°42.193 9.9 350 18.1 101880 83
2005-06-23 10:13 51°38.38 2°42.142 9.7 349 18.2 101880 83
2005-06-23 10:14 51°38.132 2°42.085 10.5 348 18.3 101870 82
2005-06-23 10:15 51°37.888 2°42.026 10.1 349 18.4 101880 82
2005-06-23 10:16 51°37.642 2°41.966 10.1 347 18.5 101880 82
2005-06-23 10:17 51°37.458 2°41.724 6.2 332 18.6 101880 81
2005-06-23 10:18 51°37.404 2°41.345 5.4 341 18.6 101890 81
2005-06-23 10:19 51°37.38 2°40.958 4.5 347 18.7 101890 81
2005-06-23 10:20 51°37.395 2°40.573 4.7 345 18.7 101880 81
2005-06-23 10:21 51°37.416 2°40.198 4.6 349 18.7 101880 81
2005-06-23 10:22 51°37.432 2°39.821 4.4 351 18.7 101880 81
2005-06-23 10:23 51°37.45 2°39.442 4.2 351 18.7 101880 81
2005-06-23 10:24 51°37.467 2°39.067 4.1 351 18.7 101870 81
2005-06-23 10:25 51°37.482 2°38.688 4.1 349 18.8 101870 81
2005-06-23 10:26 51°37.499 2°38.311 4.2 349 18.8 101880 80
2005-06-23 10:27 51°37.516 2°37.938 4.1 349 18.8 101870 80
2005-06-23 10:28 51°37.533 2°37.564 4.5 350 18.7 101870 80
2005-06-23 10:29 51°37.55 2°37.187 4.2 353 18.6 101870 80
2005-06-23 10:30 51°37.566 2°36.816 4.7 351 18.5 101870 81
2005-06-23 10:31 51°37.581 2°36.438 4.5 351 18.5 101870 81
2005-06-23 10:32 51°37.597 2°36.066 4.5 353 18.4 101870 80
2005-06-23 10:33 51°37.607 2°35.687 4.8 352 18.4 101870 81
2005-06-23 10:34 51°37.608 2°35.307 4.8 350 18.4 101870 81
2005-06-23 10:35 51°37.606 2°34.924 4.6 350 18.4 101860 81
2005-06-23 10:36 51°37.597 2°34.547 4.8 356 18.3 101860 81
2005-06-23 10:37 51°37.524 2°34.186 6.6 346 18.3 101850 81
2005-06-23 10:38 51°37.322 2°33.991 8.1 346 18.2 101850 81
2005-06-23 10:39 51°37.094 2°33.864 8 348 18.2 101850 81
2005-06-23 10:40 51°36.867 2°33.73 8 346 18.1 101850 81
2005-06-23 10:41 51°36.642 2°33.59 8.2 345 18.1 101850 82
2005-06-23 10:42 51°36.418 2°33.446 8.2 345 18 101840 82
2005-06-23 10:43 51°36.193 2°33.3 8.5 346 18 101850 82
2005-06-23 10:44 51°35.97 2°33.151 8.4 345 18 101850 82
2005-06-23 10:45 51°35.748 2°33.002 8.1 346 18 101850 82
2005-06-23 10:46 51°35.525 2°32.853 7.9 348 18.1 101850 82
2005-06-23 10:47 51°35.303 2°32.71 8.1 347 18.1 101850 82
2005-06-23 10:48 51°35.078 2°32.573 8.1 347 18.1 101840 82
2005-06-23 10:49 51°34.853 2°32.436 8.3 347 18.1 101840 82
2005-06-23 10:50 51°34.629 2°32.302 8.2 345 18.1 101840 82
2005-06-23 10:51 51°34.408 2°32.162 7.9 344 18.1 101840 82
2005-06-23 10:52 51°34.187 2°32.016 7.7 344 18.1 101840 82
2005-06-23 10:53 51°33.966 2°31.87 7.7 345 18.1 101840 82
2005-06-23 10:54 51°33.747 2°31.726 7.8 345 18.1 101840 82
2005-06-23 10:55 51°33.527 2°31.582 7.7 345 18.1 101840 82
2005-06-23 10:56 51°33.308 2°31.435 7.8 346 18.2 101850 82
2005-06-23 10:57 51°33.09 2°31.293 7.9 347 18.2 101840 82
2005-06-23 10:58 51°32.865 2°31.163 7.7 347 18.2 101840 82
2005-06-23 10:59 51°32.638 2°31.054 8 347 18.2 101840 82
2005-06-23 11:00 51°32.403 2°31.05 9 352 18.2 101840 82
2005-06-23 11:01 51°32.177 2°31.131 9.3 354 18.1 101840 82
2005-06-23 11:02 51°31.953 2°31.258 9.2 355 18.1 101840 82
2005-06-23 11:03 51°31.737 2°31.402 8.8 357 18.1 101840 82
2005-06-23 11:04 51°31.529 2°31.574 8.6 358 18.1 101840 82
2005-06-23 11:05 51°31.322 2°31.745 8.6 357 18.1 101830 83
2005-06-23 11:06 51°31.117 2°31.911 8.5 357 18.2 101840 82
2005-06-23 11:07 51°30.907 2°32.076 8.8 357 18.2 101830 82
2005-06-23 11:08 51°30.699 2°32.237 8.2 356 18.2 101830 82
2005-06-23 11:09 51°30.497 2°32.407 8.2 356 18.3 101830 82
2005-06-23 11:10 51°30.302 2°32.606 8.6 354 18.3 101820 82
2005-06-23 11:11 51°30.113 2°32.819 8.7 355 18.5 101820 81
2005-06-23 11:12 51°29.941 2°33.058 8.6 356 18.5 101820 81
2005-06-23 11:13 51°29.792 2°33.343 8.5 359 18.6 101820 80
2005-06-23 11:14 51°29.733 2°33.697 9 5 18.7 101820 79
2005-06-23 11:15 51°29.699 2°34.064 9.4 6 18.7 101820 79
2005-06-23 11:16 51°29.661 2°34.424 9 6 18.8 101820 78
2005-06-23 11:17 51°29.627 2°34.778 9 4 18.8 101820 77
2005-06-23 11:18 51°29.592 2°35.135 9 5 18.9 101820 76
2005-06-23 11:19 51°29.557 2°35.497 9 3 19 101820 75
2005-06-23 11:20 51°29.523 2°35.859 9 3 19.1 101820 74
2005-06-23 11:21 51°29.488 2°36.219 8.7 4 19.2 101820 74
2005-06-23 11:22 51°29.454 2°36.585 8.8 3 19.2 101820 73
2005-06-23 11:23 51°29.42 2°36.952 9.3 3 19.3 101820 75
2005-06-23 11:24 51°29.382 2°37.317 9.4 1 19.3 101820 76
2005-06-23 11:25 51°29.272 2°37.638 9.2 356 19.2 101820 77
2005-06-23 11:26 51°29.12 2°37.914 9.4 355 19.1 101820 78
2005-06-23 11:27 51°28.944 2°38.155 9.2 350 19.1 101820 79
2005-06-23 11:28 51°28.748 2°38.357 8.7 348 19.1 101810 79
2005-06-23 11:29 51°28.534 2°38.502 8.6 347 19.1 101810 80
2005-06-23 11:30 51°28.322 2°38.638 8.3 345 19.1 101810 80
2005-06-23 11:31 51°28.106 2°38.764 8.1 344 19.1 101810 81
2005-06-23 11:32 51°27.892 2°38.872 7.9 342 19.2 101820 81
2005-06-23 11:33 51°27.671 2°38.973 7.9 342 19.2 101810 81
2005-06-23 11:34 51°27.45 2°39.069 8.2 342 19.2 101810 82
2005-06-23 11:35 51°27.228 2°39.162 7.9 341 19.1 101810 82
2005-06-23 11:36 51°27.01 2°39.267 7.6 344 19.2 101810 83
2005-06-23 11:37 51°26.791 2°39.382 7.6 343 19.2 101810 83
2005-06-23 11:38 51°26.572 2°39.498 7.9 343 19.2 101810 83
2005-06-23 11:39 51°26.361 2°39.634 7.6 345 19.3 101810 83
2005-06-23 11:40 51°26.158 2°39.773 7.4 344 19.3 101810 83
2005-06-23 11:41 51°25.956 2°39.913 7.4 343 19.3 101810 84
2005-06-23 11:42 51°25.755 2°40.049 7.8 343 19.4 101810 84
2005-06-23 11:43 51°25.55 2°40.191 7.6 343 19.4 101810 84
2005-06-23 11:44 51°25.34 2°40.307 6.9 342 19.6 101810 85
2005-06-23 11:45 51°25.132 2°40.422 7 340 19.7 101810 85
2005-06-23 11:46 51°24.923 2°40.535 6.7 337 19.8 101810 85
2005-06-23 11:47 51°24.711 2°40.61 5.8 336 19.8 101810 84
2005-06-23 11:48 51°24.493 2°40.616 6.1 335 19.7 101810 83
2005-06-23 11:49 51°24.275 2°40.624 6.4 334 19.7 101810 82
2005-06-23 11:50 51°24.058 2°40.638 5.9 335 19.6 101800 82
2005-06-23 11:51 51°23.84 2°40.654 5.7 334 19.5 101800 82
2005-06-23 11:52 51°23.623 2°40.667 5.4 334 19.5 101800 81
2005-06-23 11:53 51°23.412 2°40.675 5.6 332 19.4 101800 81
2005-06-23 11:54 51°23.204 2°40.684 5.9 333 19.4 101800 81
2005-06-23 11:55 51°22.994 2°40.696 5.7 331 19.4 101800 82
2005-06-23 11:56 51°22.781 2°40.71 5.5 330 19.5 101800 82
2005-06-23 11:57 51°22.57 2°40.728 5.6 329 19.6 101790 82
2005-06-23 11:58 51°22.359 2°40.762 5.6 328 19.6 101790 81
2005-06-23 11:59 51°22.148 2°40.807 5.5 327 19.7 101790 80
2005-06-23 12:00 51°21.939 2°40.873 5.6 329 19.8 101780 80
2005-06-23 12:01 51°21.731 2°40.951 6.4 328 19.9 101780 78
2005-06-23 12:02 51°21.54 2°41.109 7.4 329 19.9 101780 78
2005-06-23 12:03 51°21.357 2°41.301 7.5 325 20 101780 78
2005-06-23 12:04 51°21.174 2°41.49 7.1 328 20 101790 78
2005-06-23 12:05 51°20.989 2°41.684 7.1 328 19.9 101780 76
2005-06-23 12:06 51°20.823 2°41.913 7.3 333 20.1 101780 74
2005-06-23 12:07 51°20.678 2°42.192 8.2 331 20.2 101780 75
2005-06-23 12:08 51°20.546 2°42.487 8.6 331 20.3 101770 76
2005-06-23 12:09 51°20.437 2°42.792 9.1 333 20.3 101770 76
2005-06-23 12:10 51°20.342 2°43.116 9.3 330 20.5 101760 75
2005-06-23 12:11 51°20.239 2°43.43 8.8 330 20.7 101770 75
2005-06-23 12:12 51°20.134 2°43.745 8.6 329 20.7 101760 74
2005-06-23 12:13 51°20.026 2°44.058 8.7 330 20.7 101770 74
2005-06-23 12:14 51°19.919 2°44.373 8.8 329 20.8 101770 73
2005-06-23 12:15 51°19.81 2°44.69 8.7 332 20.8 101770 73
2005-06-23 12:16 51°19.709 2°45.018 9.2 333 20.8 101770 72
2005-06-23 12:17 51°19.607 2°45.351 9.3 332 20.8 101760 72
2005-06-23 12:18 51°19.498 2°45.691 9.6 334 20.8 101760 72
2005-06-23 12:19 51°19.394 2°46.028 8.9 331 20.9 101760 72
2005-06-23 12:20 51°19.292 2°46.357 9 330 21 101760 72
2005-06-23 12:21 51°19.191 2°46.687 8.8 330 21.1 101760 72
2005-06-23 12:22 51°19.088 2°47.015 8.2 330 21.2 101770 71
2005-06-23 12:23 51°18.986 2°47.344 8.7 330 21.2 101770 70
2005-06-23 12:24 51°18.885 2°47.679 8.6 328 21.3 101770 69
2005-06-23 12:25 51°18.782 2°48.01 8.2 329 21.3 101770 69
2005-06-23 12:26 51°18.678 2°48.342 8 328 21.3 101760 69
2005-06-23 12:27 51°18.573 2°48.675 8.3 327 21.3 101760 69
2005-06-23 12:28 51°18.466 2°49.01 8.3 329 21.3 101760 69
2005-06-23 12:29 51°18.371 2°49.357 8.2 330 21.3 101760 69
2005-06-23 12:30 51°18.278 2°49.705 8 331 21.3 101760 70
2005-06-23 12:31 51°18.181 2°50.028 8 326 21.3 101760 70
2005-06-23 12:32 51°18.076 2°50.359 7.5 326 21.3 101750 70
2005-06-23 12:33 51°17.972 2°50.686 7.9 326 21.2 101760 70
2005-06-23 12:34 51°17.867 2°51.017 7.9 327 21.3 101750 70
2005-06-23 12:35 51°17.764 2°51.35 7.7 325 21.3 101750 70
2005-06-23 12:36 51°17.655 2°51.677 7.8 322 21.3 101750 70
2005-06-23 12:37 51°17.522 2°51.972 6.6 320 21.3 101750 71
2005-06-23 12:38 51°17.334 2°52.139 4.1 319 21.3 101750 72
2005-06-23 12:39 51°17.134 2°52.257 4.3 318 21.2 101750 72
2005-06-23 12:40 51°16.933 2°52.379 4.3 40 21.3 101750 72
2005-06-23 12:41 51°16.737 2°52.517 4.2 227 21.3 101750 71
2005-06-23 12:42 51°16.541 2°52.654 4.2 315 21.3 101740 71
2005-06-23 12:43 51°16.346 2°52.793 4.3 316 21.4 101740 72
2005-06-23 12:44 51°16.151 2°52.932 4.3 312 21.4 101740 72
2005-06-23 12:45 51°15.954 2°53.076 3.9 313 21.4 101740 72
2005-06-23 12:46 51°15.76 2°53.215 4.2 317 21.5 101740 71
2005-06-23 12:47 51°15.562 2°53.354 4.4 317 21.5 101740 71
2005-06-23 12:48 51°15.368 2°53.496 4.8 43 21.6 101740 71
2005-06-23 12:49 51°15.187 2°53.7 6 41 21.6 101730 71
2005-06-23 12:50 51°15.017 2°53.925 5.7 314 21.7 101730 71
2005-06-23 12:51 51°14.842 2°54.138 5.6 43 21.7 101730 71
2005-06-23 12:52 51°14.669 2°54.359 5.3 42 21.7 101730 71
2005-06-23 12:53 51°14.516 2°54.6 6.8 314 21.7 101720 72
2005-06-23 12:54 51°14.436 2°54.866 6.6 313 21.7 101730 72
2005-06-23 12:55 51°14.357 2°55.092 5.4 316 21.7 101730 72
2005-06-23 12:56 51°14.25 2°55.288 4.3 325 21.7 101730 73
2005-06-23 12:57 51°14.139 2°55.409 2.7 314 21.7 101740 74
2005-06-23 12:58 51°14.019 2°55.493 2.3 301 21.7 101740 73
2005-06-23 12:59 51°13.892 2°55.585 1.8 320 21.9 101730 72
2005-06-23 13:00 51°13.767 2°55.694 3 320 22 101740 70
2005-06-23 13:01 51°13.701 2°55.809 1.7 252 22.3 101730 67
2005-06-23 13:02 51°13.656 2°55.901 2.8 273 22.6 101730 65
2005-06-23 13:03 51°13.617 2°55.985 1.9 281 23 101730 63
2005-06-23 13:04 51°13.597 2°56.068 1.7 338 23.4 101730 61
2005-06-23 13:05 51°13.596 2°56.102 1.3 310 23.8 101740 59
2005-06-23 13:06 51°13.597 2°56.108 4.1 289 24.1 101740 60